TimeEST,TemperatureF,Dew PointF,Humidity,Sea Level PressureIn,VisibilityMPH,Wind Direction,Wind SpeedMPH,Gust SpeedMPH,PrecipitationIn,Events,Conditions,WindDirDegrees,DateUTC
12:54 AM,50.0,48.9,96,29.75,3.0,NNE,15.0,-,0.12,Rain,Rain,20,2013-02-08 05:54:00
1:10 AM,50.0,48.2,94,29.78,2.0,NNW,11.5,-,0.09,Rain,Heavy Rain,340,2013-02-08 06:10:00
1:17 AM,50.0,48.2,94,29.78,2.0,North,13.8,20.7,0.13,Rain,Heavy Rain,350,2013-02-08 06:17:00
1:54 AM,48.9,48.0,97,29.79,3.0,North,13.8,19.6,0.29,Rain,Rain,360,2013-02-08 06:54:00
2:11 AM,48.2,46.4,93,29.76,4.0,NNE,18.4,25.3,0.04,Rain,Rain,20,2013-02-08 07:11:00
2:20 AM,48.2,46.4,93,29.70,5.0,NE,19.6,36.8,0.06,Rain,Rain,50,2013-02-08 07:20:00
2:33 AM,48.2,46.4,93,29.75,9.0,North,20.7,25.3,0.07,Rain,Light Rain,350,2013-02-08 07:33:00
2:54 AM,48.9,46.0,90,29.73,10.0,North,13.8,26.5,0.07,,Overcast,10,2013-02-08 07:54:00
3:54 AM,48.0,45.0,89,29.73,10.0,North,16.1,25.3,N/A,,Overcast,360,2013-02-08 08:54:00
4:54 AM,46.9,44.1,90,29.75,10.0,North,16.1,23.0,N/A,,Overcast,350,2013-02-08 09:54:00
5:54 AM,46.9,44.1,90,29.79,10.0,North,13.8,-,N/A,,Overcast,350,2013-02-08 10:54:00
6:39 AM,46.4,44.6,93,29.81,10.0,NNW,12.7,-,N/A,,Overcast,340,2013-02-08 11:39:00
7:54 AM,46.9,43.0,86,29.82,10.0,NNW,11.5,-,N/A,,Clear,340,2013-02-08 12:54:00
8:54 AM,48.9,43.0,80,29.84,10.0,NW,12.7,-,N/A,,Clear,320,2013-02-08 13:54:00
9:13 AM,46.4,42.8,87,29.86,10.0,NW,16.1,-,N/A,,Mostly Cloudy,310,2013-02-08 14:13:00
9:54 AM,45.0,41.0,86,29.89,10.0,NNW,16.1,-,N/A,,Overcast,330,2013-02-08 14:54:00
10:54 AM,46.0,41.0,83,29.92,10.0,NW,12.7,-,N/A,,Overcast,310,2013-02-08 15:54:00
11:54 AM,48.9,42.1,77,29.90,10.0,WNW,10.4,-,N/A,,Scattered Clouds,300,2013-02-08 16:54:00
12:54 PM,53.1,45.0,74,29.87,10.0,West,9.2,-,N/A,,Clear,280,2013-02-08 17:54:00
1:54 PM,57.0,46.0,67,29.87,10.0,WNW,11.5,19.6,N/A,,Clear,300,2013-02-08 18:54:00
2:54 PM,59.0,45.0,60,29.85,10.0,WNW,12.7,20.7,N/A,,Partly Cloudy,300,2013-02-08 19:54:00
3:54 PM,60.1,46.0,60,29.86,10.0,WNW,12.7,-,N/A,,Clear,290,2013-02-08 20:54:00
4:54 PM,57.0,46.0,67,29.87,10.0,West,6.9,-,N/A,,Partly Cloudy,280,2013-02-08 21:54:00
5:54 PM,55.0,46.9,74,29.89,10.0,Calm,Calm,-,N/A,,Mostly Cloudy,0,2013-02-08 22:54:00
6:54 PM,54.0,48.0,80,29.91,10.0,WSW,3.5,-,N/A,,Overcast,250,2013-02-08 23:54:00
7:54 PM,50.0,46.0,86,29.94,10.0,West,6.9,-,N/A,,Clear,260,2013-02-09 00:54:00
8:54 PM,52.0,39.9,63,29.96,10.0,WNW,8.1,-,N/A,,Clear,300,2013-02-09 01:54:00
9:54 PM,52.0,35.1,53,30.00,10.0,NW,12.7,-,N/A,,Clear,320,2013-02-09 02:54:00
10:54 PM,48.9,32.0,52,30.04,10.0,NNW,15.0,27.6,N/A,,Clear,340,2013-02-09 03:54:00
11:54 PM,46.0,30.0,54,30.08,10.0,NNW,10.4,-,N/A,,Clear,340,2013-02-09 04:54:00